FW1404 Weather Reports


Display with metric or nautical units.
time (UTC)temp
F
wind
direction
speed
MPH
gust
MPH
rain 1hr
in
rain 24hr
in
rain mn
in
humidity
%
barometer
mb
20180921073248 74 193 8.0 13.0 0.00 0.00 0.00 57 1011.9
20180921072740 74 215 12.0 12.0 0.00 0.00 0.00 57 1011.9
20180921072225 74 211 6.0 10.0 0.00 0.00 0.00 58 1011.8
20180921071724 74 176 8.0 15.0 0.00 0.00 0.00 58 1011.8
20180921071224 74 169 7.0 15.0 0.00 0.00 0.00 58 1011.9
20180921070722 74 215 11.0 17.0 0.00 0.00 0.00 58 1011.9
20180921070220 73 187 12.0 17.0 0.00 0.00 0.00 58 1012.0
20180921065720 73 183 10.0 17.0 0.00 0.00 0.00 58 1012.0
20180921065219 73 143 11.0 17.0 0.00 0.00 0.00 58 1012.0
20180921064722 73 215 10.0 15.0 0.00 0.00 0.00 58 1012.0
20180921064221 73 187 9.0 15.0 0.00 0.00 0.00 59 1012.0
20180921063720 72 196 9.0 14.0 0.00 0.00 0.00 59 1012.0
20180921063221 72 197 8.0 14.0 0.00 0.00 0.00 60 1012.1
20180921062720 72 167 10.0 14.0 0.00 0.00 0.00 60 1012.1
20180921062217 71 191 11.0 13.0 0.00 0.00 0.00 60 1012.0
20180921061717 71 160 9.0 14.0 0.00 0.00 0.00 61 1012.1
20180921061217 71 211 10.0 13.0 0.00 0.00 0.00 61 1012.2
20180921060719 71 203 7.0 15.0 0.00 0.00 0.00 62 1012.2
20180921060220 70 193 11.0 15.0 0.00 0.00 0.00 62 1012.2
20180921055721 70 197 6.0 13.0 0.00 0.00 0.00 62 1012.2
20180921055219 70 183 9.0 13.0 0.00 0.00 0.00 62 1012.3
20180921054717 70 194 4.0 9.0 0.00 0.00 0.00 62 1012.3
20180921054216 70 170 6.0 10.0 0.00 0.00 0.00 62 1012.3
20180921053714 70 193 7.0 10.0 0.00 0.00 0.00 62 1012.2
20180921053216 70 220 7.0 12.0 0.00 0.00 0.00 62 1012.3
20180921052716 70 194 7.0 14.0 0.00 0.00 0.00 62 1012.3
20180921052216 69 162 10.0 14.0 0.00 0.00 0.00 62 1012.3
20180921051719 69 174 9.0 12.0 0.00 0.00 0.00 62 1012.3
20180921051219 69 183 6.0 14.0 0.00 0.00 0.00 62 1012.3
20180921050719 69 187 9.0 14.0 0.00 0.00 0.00 62 1012.3
20180921050218 69 201 6.0 12.0 0.00 0.00 0.00 62 1012.3
20180921045719 69 196 6.0 13.0 0.00 0.00 0.00 62 1012.4
20180921045218 69 174 7.0 12.0 0.00 0.00 0.00 62 1012.4
20180921044718 69 207 9.0 13.0 0.00 0.00 0.00 61 1012.4
20180921044215 69 189 10.0 13.0 0.00 0.00 0.00 61 1012.5
20180921043713 69 158 6.0 11.0 0.00 0.00 0.00 62 1012.5
20180921043214 69 180 6.0 10.0 0.00 0.00 0.00 62 1012.6
20180921042715 69 160 7.0 11.0 0.00 0.00 0.00 62 1012.7
20180921042215 69 196 8.0 11.0 0.00 0.00 0.00 62 1012.6
20180921041713 69 172 8.0 13.0 0.00 0.00 0.00 61 1012.7
20180921041214 69 159 8.0 13.0 0.00 0.00 0.00 61 1012.7
20180921040714 69 141 7.0 13.0 0.00 0.00 0.00 61 1012.8
20180921040215 69 214 8.0 11.0 0.00 0.00 0.00 62 1012.8
20180921035714 69 193 8.0 11.0 0.00 0.00 0.00 62 1012.9
20180921035213 69 189 6.0 7.0 0.00 0.00 0.00 62 1012.9
20180921034713 69 180 5.0 9.0 0.00 0.00 0.00 62 1012.9
20180921034217 69 179 5.0 11.0 0.00 0.00 0.00 62 1012.9
20180921033716 69 194 7.0 10.0 0.00 0.00 0.00 62 1012.9
20180921033216 69 194 5.0 9.0 0.00 0.00 0.00 62 1013.0
20180921032716 69 176 6.0 11.0 0.00 0.00 0.00 61 1013.0
20180921032216 69 143 8.0 10.0 0.00 0.00 0.00 61 1013.1
20180921031716 69 169 6.0 7.0 0.00 0.00 0.00 61 1013.1
20180921031216 69 200 5.0 10.0 0.00 0.00 0.00 61 1013.1
20180921030715 69 194 5.0 7.0 0.00 0.00 0.00 61 1013.1
20180921030215 69 190 6.0 10.0 0.00 0.00 0.00 61 1013.2
20180921025715 69 206 5.0 11.0 0.00 0.00 0.00 61 1013.3
20180921025215 70 208 7.0 11.0 0.00 0.00 0.00 61 1013.4
20180921024715 70 229 7.0 9.0 0.00 0.00 0.00 60 1013.3
20180921024215 70 167 5.0 10.0 0.00 0.00 0.00 60 1013.3
20180921023713 70 193 6.0 10.0 0.00 0.00 0.00 60 1013.3
20180921023211 70 187 6.0 12.0 0.00 0.00 0.00 60 1013.3
20180921022713 70 162 7.0 12.0 0.00 0.00 0.00 60 1013.4
20180921022213 70 170 7.0 11.0 0.00 0.00 0.00 60 1013.4
20180921021713 70 189 6.0 11.0 0.00 0.00 0.00 60 1013.4
20180921021215 70 166 7.0 12.0 0.00 0.00 0.00 60 1013.4
20180921020713 70 196 8.0 12.0 0.00 0.00 0.00 60 1013.5
20180921020213 70 200 8.0 12.0 0.00 0.00 0.00 60 1013.5
20180921015713 70 187 8.0 12.0 0.00 0.00 0.00 60 1013.5
20180921015213 70 179 6.0 10.0 0.00 0.00 0.00 60 1013.6
20180921014713 70 167 6.0 12.0 0.00 0.00 0.00 59 1013.6
20180921014212 71 198 9.0 12.0 0.00 0.00 0.00 59 1013.6
20180921013713 71 193 9.0 12.0 0.00 0.00 0.00 60 1013.7
20180921013214 70 180 8.0 14.0 0.00 0.00 0.00 60 1013.7
20180921012714 70 196 7.0 14.0 0.00 0.00 0.00 60 1013.6
20180921012213 70 207 5.0 11.0 0.00 0.00 0.00 60 1013.7
20180921011713 70 201 7.0 9.0 0.00 0.00 0.00 60 1013.7
20180921011213 70 170 6.0 11.0 0.00 0.00 0.00 60 1013.7
20180921010713 70 187 7.0 11.0 0.00 0.00 0.00 60 1013.8
20180921010214 70 166 8.0 11.0 0.00 0.00 0.00 60 1013.8
20180921005713 70 213 6.0 10.0 0.00 0.00 0.00 60 1013.9
20180921005209 70 173 7.0 11.0 0.00 0.00 0.00 60 1013.9
20180921004654 70 191 6.0 11.0 0.00 0.00 0.00 60 1014.0
20180921004150 70 201 6.0 7.0 0.00 0.00 0.00 60 1014.0
20180921003650 70 201 4.0 7.0 0.00 0.00 0.00 60 1014.1
20180921003142 70 180 3.0 7.0 0.00 0.00 0.00 60 1014.1
20180921002643 70 190 4.0 9.0 0.00 0.00 0.00 60 1014.1
20180921002134 71 190 4.0 9.0 0.00 0.00 0.00 60 1014.2
20180921001622 71 189 3.0 9.0 0.00 0.00 0.00 59 1014.2
20180921001120 71 186 6.0 6.0 0.00 0.00 0.00 57 1014.3
20180921000621 71 173 4.0 12.0 0.00 0.00 0.00 57 1014.2
20180921000121 72 139 5.0 12.0 0.00 0.00 0.00 57 1014.2
20180920235622 72 176 8.0 10.0 0.00 0.00 0.00 57 1014.2
20180920235123 72 221 5.0 10.0 0.00 0.00 0.00 57 1014.3
20180920234620 72 206 5.0 9.0 0.00 0.00 0.00 56 1014.3
20180920234120 73 177 8.0 12.0 0.00 0.00 0.00 56 1014.3
20180920233621 73 193 9.0 12.0 0.00 0.00 0.00 56 1014.4
20180920233121 73 176 9.0 12.0 0.00 0.00 0.00 57 1014.4
20180920232621 73 198 8.0 12.0 0.00 0.00 0.00 57 1014.5
20180920232121 73 187 7.0 12.0 0.00 0.00 0.00 56 1014.5
20180920231621 73 189 6.0 9.0 0.00 0.00 0.00 56 1014.4
20180920231125 73 207 6.0 12.0 0.00 0.00 0.00 55 1014.5
20180920230623 73 189 10.0 13.0 0.00 0.00 0.00 55 1014.5
20180920230123 73 180 7.0 13.0 0.00 0.00 0.00 55 1014.7
20180920225624 73 204 6.0 13.0 0.00 0.00 0.00 55 1014.6
20180920225123 73 193 9.0 13.0 0.00 0.00 0.00 55 1014.6
20180920224620 73 196 8.0 11.0 0.00 0.00 0.00 55 1014.7
20180920224121 73 201 8.0 15.0 0.00 0.00 0.00 55 1014.7
20180920223619 73 180 9.0 13.0 0.00 0.00 0.00 55 1014.8
20180920223120 73 217 7.0 12.0 0.00 0.00 0.00 55 1014.7
20180920222620 73 208 8.0 12.0 0.00 0.00 0.00 55 1014.8
20180920222122 74 206 7.0 11.0 0.00 0.00 0.00 55 1014.9
20180920221620 74 183 7.0 13.0 0.00 0.00 0.00 55 1014.9
20180920221121 74 194 8.0 11.0 0.00 0.00 0.00 55 1014.9
20180920220621 74 177 10.0 14.0 0.00 0.00 0.00 55 1014.9
20180920220121 74 163 10.0 12.0 0.00 0.00 0.00 55 1015.0
20180920215621 74 190 9.0 14.0 0.00 0.00 0.00 55 1015.0
20180920215122 74 184 12.0 14.0 0.00 0.00 0.00 55 1015.0
20180920214623 74 211 8.0 15.0 0.00 0.00 0.00 55 1015.1
20180920214126 74 177 8.0 14.0 0.00 0.00 0.00 55 1015.2
20180920213623 74 210 8.0 11.0 0.00 0.00 0.00 55 1015.2
20180920213124 74 194 8.0 12.0 0.00 0.00 0.00 55 1015.3
20180920212624 74 213 7.0 12.0 0.00 0.00 0.00 54 1015.3
20180920212125 74 182 8.0 12.0 0.00 0.00 0.00 55 1015.3
20180920211610 74 203 10.0 12.0 0.00 0.00 0.00 55 1015.5
20180920211113 74 183 9.0 10.0 0.00 0.00 0.00 55 1015.5
20180920210609 74 187 7.0 11.0 0.00 0.00 0.00 55 1015.5
20180920210110 74 180 7.0 11.0 0.00 0.00 0.00 56 1015.6
20180920205607 74 184 6.0 10.0 0.00 0.00 0.00 56 1015.5
20180920205110 74 186 7.0 10.0 0.00 0.00 0.00 56 1015.6
20180920204605 74 201 6.0 9.0 0.00 0.00 0.00 56 1015.5
20180920204104 73 180 6.0 7.0 0.00 0.00 0.00 56 1015.6
20180920203607 74 170 5.0 9.0 0.00 0.00 0.00 56 1015.5
20180920203105 74 172 5.0 9.0 0.00 0.00 0.00 56 1015.6
20180920202605 74 184 5.0 9.0 0.00 0.00 0.00 56 1015.7
20180920202106 74 201 6.0 9.0 0.00 0.00 0.00 56 1015.7
20180920201603 74 174 6.0 7.0 0.00 0.00 0.00 55 1015.6
20180920201104 74 194 4.0 7.0 0.00 0.00 0.00 55 1015.6
20180920200606 74 191 5.0 7.0 0.00 0.00 0.00 55 1015.6
20180920200104 74 191 5.0 7.0 0.00 0.00 0.00 55 1015.6
20180920195603 74 141 6.0 7.0 0.00 0.00 0.00 55 1015.7
20180920195106 74 193 4.0 7.0 0.00 0.00 0.00 55 1015.8
20180920194603 74 158 5.0 7.0 0.00 0.00 0.00 55 1015.7
20180920194104 74 158 4.0 5.0 0.00 0.00 0.00 55 1015.8
20180920193606 74 189 4.0 6.0 0.00 0.00 0.00 56 1015.8
20180920193104 74 138 4.0 5.0 0.00 0.00 0.00 56 1015.8
20180920192602 74 182 4.0 5.0 0.00 0.00 0.00 57 1015.8
20180920192107 74 179 2.0 5.0 0.00 0.00 0.00 58 1015.8
20180920191604 73 153 4.0 5.0 0.00 0.00 0.00 58 1015.8
20180920191103 73 190 4.0 5.0 0.00 0.00 0.00 59 1015.8
20180920190604 73 184 4.0 4.0 0.00 0.00 0.00 60 1015.8
20180920190103 73 160 3.0 4.0 0.00 0.00 0.00 60 1015.9
20180920185602 73 163 3.0 4.0 0.00 0.00 0.00 60 1015.9
20180920185111 73 149 2.0 4.0 0.00 0.00 0.00 60 1015.9
20180920184605 73 167 2.0 4.0 0.00 0.00 0.00 60 1015.9
20180920184106 73 167 2.0 3.0 0.00 0.00 0.00 59 1015.8
20180920183606 73 170 1.0 3.0 0.00 0.00 0.00 59 1015.8
20180920183103 73 173 2.0 3.0 0.00 0.00 0.00 59 1015.8
20180920182603 74 169 1.0 2.0 0.00 0.00 0.00 59 1015.8
20180920182105 74 169 2.0 2.0 0.00 0.00 0.00 57 1015.8
20180920181602 74 169 1.0 2.0 0.00 0.00 0.00 57 1015.8
20180920181102 75 169 2.0 3.0 0.00 0.00 0.00 57 1015.9
20180920180601 75 169 2.0 3.0 0.00 0.00 0.00 57 1015.8
20180920180102 75 170 1.0 1.0 0.00 0.00 0.00 56 1015.8
20180920175601 75 170 1.0 3.0 0.00 0.00 0.00 56 1015.8
20180920175104 76 169 2.0 3.0 0.00 0.00 0.00 55 1015.8
20180920174601 76 160 2.0 3.0 0.00 0.00 0.00 54 1015.7
20180920174101 76 190 3.0 3.0 0.00 0.00 0.00 54 1015.8
20180920173610 76 176 2.0 3.0 0.00 0.00 0.00 53 1015.9
20180920173100 77 176 2.0 3.0 0.00 0.00 0.00 53 1016.0
20180920172600 77 176 2.0 3.0 0.00 0.00 0.00 52 1015.9
20180920172106 77 176 2.0 3.0 0.00 0.00 0.00 52 1015.9
20180920171600 78 173 2.0 3.0 0.00 0.00 0.00 50 1015.9
20180920171102 78 173 2.0 3.0 0.00 0.00 0.00 50 1015.8
20180920170605 78 176 2.0 3.0 0.00 0.00 0.00 49 1015.8
20180920170103 79 174 2.0 4.0 0.00 0.00 0.00 49 1015.8
20180920165601 79 187 3.0 4.0 0.00 0.00 0.00 48 1015.9
20180920165105 80 187 2.0 5.0 0.00 0.00 0.00 48 1016.0
20180920164604 80 186 3.0 5.0 0.00 0.00 0.00 47 1015.9
20180920164100 81 182 3.0 4.0 0.00 0.00 0.00 47 1015.9
20180920163601 81 196 2.0 5.0 0.00 0.00 0.00 46 1015.9
20180920163102 82 163 3.0 5.0 0.00 0.00 0.00 46 1016.0
20180920162559 82 204 3.0 6.0 0.00 0.00 0.00 44 1016.0
20180920162101 82 183 4.0 6.0 0.00 0.00 0.00 44 1016.0
20180920161559 82 170 4.0 7.0 0.00 0.00 0.00 44 1016.0
20180920161058 83 197 4.0 7.0 0.00 0.00 0.00 44 1016.1
20180920160602 83 183 4.0 7.0 0.00 0.00 0.00 43 1016.1
20180920160059 83 198 5.0 7.0 0.00 0.00 0.00 43 1016.1
20180920155559 83 197 4.0 6.0 0.00 0.00 0.00 42 1016.2
20180920155101 84 206 4.0 6.0 0.00 0.00 0.00 42 1016.1
20180920154558 84 163 4.0 7.0 0.00 0.00 0.00 41 1016.2
20180920154058 84 235 5.0 7.0 0.00 0.00 0.00 41 1016.2
20180920153603 84 196 6.0 7.0 0.00 0.00 0.00 40 1016.1
20180920153057 84 204 6.0 9.0 0.00 0.00 0.00 40 1016.2
20180920152559 84 183 6.0 9.0 0.00 0.00 0.00 40 1016.2
20180920152100 84 191 6.0 11.0 0.00 0.00 0.00 40 1016.2
20180920151557 84 227 8.0 11.0 0.00 0.00 0.00 40 1016.3
20180920151058 84 179 5.0 9.0 0.00 0.00 0.00 40 1016.2
20180920150600 84 211 4.0 9.0 0.00 0.00 0.00 40 1016.3
20180920150057 84 214 5.0 12.0 0.00 0.00 0.00 39 1016.2
20180920145557 84 210 8.0 12.0 0.00 0.00 0.00 39 1016.2
20180920145100 84 207 6.0 11.0 0.00 0.00 0.00 39 1016.2
20180920144559 84 239 9.0 11.0 0.00 0.00 0.00 39 1016.3
20180920144059 84 225 4.0 7.0 0.00 0.00 0.00 40 1016.3
20180920143601 84 210 5.0 7.0 0.00 0.00 0.00 40 1016.3
20180920143057 85 218 4.0 6.0 0.00 0.00 0.00 40 1016.4
20180920142557 85 251 4.0 9.0 0.00 0.00 0.00 39 1016.3
20180920142058 85 270 4.0 10.0 0.00 0.00 0.00 39 1016.4
20180920141556 85 197 9.0 10.0 0.00 0.00 0.00 39 1016.5
20180920141056 85 194 7.0 10.0 0.00 0.00 0.00 39 1016.5
20180920140602 85 197 5.0 7.0 0.00 0.00 0.00 39 1016.6
20180920140059 85 213 5.0 10.0 0.00 0.00 0.00 39 1016.5
20180920135559 86 211 5.0 10.0 0.00 0.00 0.00 39 1016.7
20180920135100 86 197 6.0 9.0 0.00 0.00 0.00 39 1016.7
20180920134558 86 231 4.0 10.0 0.00 0.00 0.00 38 1016.7
20180920134055 86 211 6.0 10.0 0.00 0.00 0.00 38 1016.8
20180920133555 86 245 6.0 11.0 0.00 0.00 0.00 38 1016.8
20180920133056 86 186 8.0 12.0 0.00 0.00 0.00 38 1016.9
20180920132557 86 196 5.0 12.0 0.00 0.00 0.00 38 1016.9
20180920132055 86 187 9.0 12.0 0.00 0.00 0.00 38 1016.9
20180920131556 86 187 6.0 11.0 0.00 0.00 0.00 38 1016.9
20180920131055 86 248 6.0 11.0 0.00 0.00 0.00 39 1017.0
20180920130555 87 193 7.0 10.0 0.00 0.00 0.00 38 1017.0
20180920130056 87 232 4.0 10.0 0.00 0.00 0.00 38 1017.1
20180920125555 87 232 5.0 10.0 0.00 0.00 0.00 38 1017.2
20180920125054 87 248 6.0 12.0 0.00 0.00 0.00 38 1017.2
20180920124554 87 190 6.0 14.0 0.00 0.00 0.00 37 1017.4
20180920124053 88 229 8.0 14.0 0.00 0.00 0.00 37 1017.5
20180920123552 87 222 7.0 18.0 0.00 0.00 0.00 38 1017.5
20180920123052 87 227 9.0 18.0 0.00 0.00 0.00 38 1017.5
20180920122554 86 183 3.0 12.0 0.00 0.00 0.00 40 1017.7
20180920122053 85 200 7.0 12.0 0.00 0.00 0.00 39 1017.7
20180920121551 86 174 4.0 17.0 0.00 0.00 0.00 39 1017.7
20180920121052 86 174 9.0 17.0 0.00 0.00 0.00 39 1017.9
20180920120552 87 189 7.0 10.0 0.00 0.00 0.00 40 1017.8
20180920120055 87 182 6.0 13.0 0.00 0.00 0.00 40 1018.0
20180920115555 86 207 10.0 13.0 0.00 0.00 0.00 42 1018.0
20180920115054 85 189 9.0 13.0 0.00 0.00 0.00 41 1018.0
20180920114552 86 249 4.0 10.0 0.00 0.00 0.00 40 1018.1
20180920114052 86 135 8.0 10.0 0.00 0.00 0.00 41 1018.0
20180920113554 85 207 6.0 11.0 0.00 0.00 0.00 42 1018.2
20180920113051 85 191 6.0 13.0 0.00 0.00 0.00 42 1018.2
20180920112551 85 218 9.0 13.0 0.00 0.00 0.00 41 1018.3
20180920112054 87 258 6.0 7.0 0.00 0.00 0.00 43 1018.2
20180920111551 85 234 3.0 12.0 0.00 0.00 0.00 43 1018.3
20180920111051 84 235 9.0 12.0 0.00 0.00 0.00 43 1018.4
20180920110554 85 172 8.0 11.0 0.00 0.00 0.00 42 1018.5
20180920110050 85 235 5.0 13.0 0.00 0.00 0.00 43 1018.4
20180920105556 85 186 9.0 11.0 0.00 0.00 0.00 41 1018.5
20180920105053 86 203 10.0 9.0 0.00 0.00 0.00 45 1018.5
20180920104553 85 191 4.0 9.0 0.00 0.00 0.00 45 1018.5
20180920104053 83 189 3.0 10.0 0.00 0.00 0.00 45 1018.6
20180920103554 85 214 7.0 11.0 0.00 0.00 0.00 44 1018.7
20180920103052 85 293 7.0 10.0 0.00 0.00 0.00 44 1018.7
20180920102551 85 229 6.0 10.0 0.00 0.00 0.00 46 1018.8
20180920102053 84 244 4.0 11.0 0.00 0.00 0.00 46 1018.8
20180920101551 83 249 7.0 11.0 0.00 0.00 0.00 47 1018.9
20180920101050 82 193 7.0 12.0 0.00 0.00 0.00 46 1019.0
20180920100551 82 189 4.0 12.0 0.00 0.00 0.00 46 1019.0
20180920100051 83 228 5.0 6.0 0.00 0.00 0.00 47 1019.1
20180920095551 83 256 4.0 7.0 0.00 0.00 0.00 47 1019.2
20180920095053 83 224 4.0 7.0 0.00 0.00 0.00 46 1019.3
20180920094551 83 258 3.0 7.0 0.00 0.00 0.00 47 1019.3
20180920094052 82 241 4.0 7.0 0.00 0.00 0.00 47 1019.3
20180920093552 82 220 6.0 9.0 0.00 0.00 0.00 48 1019.3
20180920093051 81 213 5.0 9.0 0.00 0.00 0.00 48 1019.4
20180920092547 81 249 1.0 6.0 0.00 0.00 0.00 49 1019.4
20180920092053 80 190 4.0 6.0 0.00 0.00 0.00 50 1019.4
20180920091550 80 201 4.0 7.0 0.00 0.00 0.00 50 1019.5
20180920091050 79 196 4.0 7.0 0.00 0.00 0.00 50 1019.5
20180920090551 79 208 5.0 6.0 0.00 0.00 0.00 51 1019.6
20180920090049 78 262 5.0 7.0 0.00 0.00 0.00 52 1019.5
20180920085549 78 207 3.0 11.0 0.00 0.00 0.00 52 1019.5
20180920085052 79 203 7.0 11.0 0.00 0.00 0.00 52 1019.5
20180920084549 78 183 5.0 5.0 0.00 0.00 0.00 52 1019.5
20180920084049 79 227 4.0 6.0 0.00 0.00 0.00 52 1019.5
20180920083552 78 204 3.0 6.0 0.00 0.00 0.00 53 1019.6
20180920083049 78 174 3.0 9.0 0.00 0.00 0.00 52 1019.7
20180920082552 78 221 7.0 12.0 0.00 0.00 0.00 53 1019.7
20180920082050 78 303 10.0 11.0 0.00 0.00 0.00 53 1019.8
20180920081548 77 208 6.0 10.0 0.00 0.00 0.00 53 1019.7
20180920081048 78 210 3.0 7.0 0.00 0.00 0.00 54 1019.5
20180920080550 77 220 4.0 7.0 0.00 0.00 0.00 54 1019.6
20180920080048 76 203 4.0 9.0 0.00 0.00 0.00 55 1019.5
20180920075547 76 269 4.0 9.0 0.00 0.00 0.00 54 1019.5
20180920075051 76 206 3.0 10.0 0.00 0.00 0.00 54 1019.5
20180920074548 76 224 6.0 10.0 0.00 0.00 0.00 54 1019.5
20180920074047 76 293 5.0 9.0 0.00 0.00 0.00 56 1019.5
20180920073550 75 242 7.0 11.0 0.00 0.00 0.00 56 1019.5